Location: Biltmore Gardens
(41.6070°N, 83.4666°W)
Time: 07:44:44
(UTC+00:00)

Vanguard 3 - Pass Details

Date: 28 April 2021
Orbit: 507 x 3262 km, 33.4° (Epoch: 17 May)

Event Time Altitude Azimuth Distance (km) Brightness Sun altitude
Rises 02:17:28 0° 215° (SW) 6,430 11.7 -18.5°
Reaches altitude 10° 02:23:26 10° 203° (SSW) 4,935 10.9 -19.4°
Enters shadow 02:32:11 23° 162° (SSE) 3,141 9.6 -20.6°
